Location: Koszewko
(53.2876°N, 14.9061°E)
Time: 23:34:42
(UTC+00:00)

Cosmos 2219 Rocket - Pass Details

Date: 03 March 2021
Orbit: 826 x 848 km, 71.0° (Epoch: 12 April)

Event Time Altitude Azimuth Distance (km) Brightness Sun altitude
Rises 21:10:56 0° 250° (WSW) 3,368 5.5 -37.1°
Reaches altitude 10° 21:13:41 10° 261° (W) 2,440 4.9 -37.4°
Maximum altitude 21:18:31 29° 321° (NW) 1,488 3.9 -37.8°
Drops below altitude 10° 21:23:24 10° 21° (NNE) 2,461 4.9 -38.2°
Sets 21:26:12 0° 33° (NNE) 3,402 5.6 -38.5°
